Regional Weather Roundup
Issued by NWS

Home | Current Version | Previous Version | Text Only | Print | Product List | Glossary Off
Versions: 1 2 3 4 5 6 7 8 9 10 11 12 13 14 15 16 17 18 19 20 21 22 23 24 25 26 27 28 29 30 31 32 33 34 35 36 37 38 39 40 41 42 43 44 45 46 47 48 49 50

000
ASUS44 KMEG 281700
RWRTN
TENNESSEE HOURLY STATE WEATHER ROUNDUP
NATIONAL WEATHER SERVICE MEMPHIS TN
1200 PM CDT WED SEP 28 2016

TNZ002-004-019-021-049-052-054-088>092-281800-
WEST TENNESSEE

CITY           SKY/WX    TMP DP  RH WIND       PRES   REMARKS
MEMPHIS INTL   SUNNY     83  52  34 SW12      29.93F
NWS MEMPHIS      N/A     81 N/A N/A MISG        N/A
JACKSON        SUNNY    N/A N/A N/A SW12      29.90F
DYERSBURG      SUNNY    N/A N/A N/A MISG        N/A
$$

TNZ008-025-027-028-033-062-065-066-281800-
NORTH MIDDLE TENNESSEE

CITY           SKY/WX    TMP DP  RH WIND       PRES   REMARKS
NASHVILLE      MOSUNNY   79  47  32 S15G23    29.91F
CLARKSVILLE    MOSUNNY   77  51  40 SW16G23   29.85F
SMYRNA         SUNNY     79  49  34 S12       29.92F
COOKEVILLE     SUNNY     77  48  36 S7        29.93F
CROSSVILLE     SUNNY     74  43  32 VRB5      29.97F
$$

TNZ061-075-076-078-094-096-097-281800-
SOUTH MIDDLE TENNESSEE

CITY           SKY/WX    TMP DP  RH WIND       PRES   REMARKS
SHELBYVILLE    SUNNY     79  48  34 SW13      29.95F
$$

TNZ017-018-042-046-047-281800-
NORTHEAST TENNESSEE

CITY           SKY/WX    TMP DP  RH WIND       PRES   REMARKS
TRI CITIES     MOSUNNY   74  55  51 SW7       29.96F
$$

TNZ012-013-036-069-073-074-281800-
CENTRAL EAST TENNESSEE

CITY           SKY/WX    TMP DP  RH WIND       PRES   REMARKS
KNOXVILLE      NOT AVBL
OAK RIDGE      SUNNY     77  43  29 MISG      29.95F
$$

TNZ083-085-099-281800-
SOUTHEAST TENNESSEE

CITY           SKY/WX    TMP DP  RH WIND       PRES   REMARKS
CHATTANOOGA    SUNNY     78  41  26 CALM      29.96F
$$

SKY/WX REPORTED AS FAIR MEANS FEW OR NO CLOUDS BELOW
12 THOUSAND FEET.





USA.gov is the U.S. government's official web portal to all federal, state and local government web resources and services.